{"data":{"norad_id":37849,"epoch":"2026-05-25T03:36:50.741856Z","epoch_age_seconds":61889,"freshness":"FRESH","line1":"1 37849U 11061A   26145.15058729  .00000075  00000+0  56852-4 0  9996","line2":"2 37849  98.7947  86.1853 0002591  53.0944 307.0469 14.19511970755172","mean_motion":14.1951197,"eccentricity":0.0002591,"inclination_deg":98.7947,"raan_deg":86.1853,"arg_perigee_deg":53.0944,"mean_anomaly_deg":307.0469,"bstar":5.6852e-5,"rev_number":75517,"period_min":101.44331505708,"perigee_km":825.13689123484,"apogee_km":828.87059516796,"semimajor_km":7205.1407432014,"source":"CELESTRAK","updated_at":"2026-05-25T13:38:11.913174Z"}}